Location: Владивосток
(43.1151°N, 131.8856°E)
Time: 05:39:52
(UTC+10:00)

LO-87 - Pass Details

Date: 04 July 2022
Orbit: 451 x 466 km, 97.4° (Epoch: 08 August)

Event Time Altitude Azimuth Distance (km) Brightness Sun altitude
Exits shadow 00:34:33 50° 34° (NE) 600 ? -23.2°
Drops below altitude 10° 00:37:25 10° 356° (N) 1,623 ? -23.3°
Sets 00:39:30 0° 352° (N) 2,507 ? -23.4°
